London, United Kingdom

3:09 AM GMT on February 14, 2016 (GMT +0000)
Heathrow

Weather History for EGLL - March, 2012

Change the Weather History Date:

Saturday, March 3, 2012

  Actual Average Record
Temperature  
Mean Temperature 52 °F -  
Max Temperature 59 °F 51 °F 59 °F (1998)
Min Temperature 44 °F 38 °F 26 °F (2006)
Degree Days  
Heating Degree Days 14    
Growing Degree Days 2 (Base 50)    
Moisture  
Dew Point 42 °F    
Average Humidity 78    
Maximum Humidity 100    
Minimum Humidity 30    
Precipitation  
Precipitation 0.01 in - - ()
Sea Level Pressure  
Sea Level Pressure 30.08 in    
Wind  
Wind Speed 8 mph ()    
Max Wind Speed 21 mph    
Max Gust Speed 23 mph    
Visibility 3.8 miles    
Events Rain    
Averages and records for this station are not official NWS values.
T = Trace of Precipitation, MM = Missing Value Source: Averaged Metar Reports

Daily Weather History Graph

Daily Weather History Graph

Search for Another Location

Airport or City:

Trip Planner

Search our weather history database for the weather conditions in past years. The results will help you decide how hot, cold, wet, or windy it might be!

Date:

Astronomy

Mar. 03, 2012 Rise Set
Actual Time 6:41 AM GMT 5:46 PM GMT
Civil Twilight 6:08 AM GMT 6:19 PM GMT
Nautical Twilight 5:30 AM GMT 6:58 PM GMT
Astronomical Twilight 4:51 AM GMT 7:37 PM GMT
Moon 12:11 PM GMT (3/3) 3:38 AM GMT (3/3)
Length of Visible Light 12h 11m
Length of Day
11h 04m
Waxing Gibbous, 73% of the Moon is Illuminated
Mar 3
Waxing Gibbous
Mar 8
Full
Mar 15
Last Quarter
Mar 22
New
Mar 30
First Quarter

Hourly Weather History & Observations

Time (GMT) Temp. Windchill Dew Point Humidity Pressure Visibility Wind Dir Wind Speed Gust Speed Precip Events Conditions
12:20 AM 44.6 °F 41.4 °F 42.8 °F 93% 30.12 in 1.1 mi ESE 5.8 mph - N/A   Haze
12:50 AM 44.6 °F 41.4 °F 42.8 °F 93% 30.12 in 0.7 mi ESE 5.8 mph - N/A   Haze
1:20 AM 44.6 °F 42.2 °F 42.8 °F 93% 30.09 in 0.6 mi ESE 4.6 mph - N/A   Mostly Cloudy
1:50 AM 44.6 °F 42.2 °F 42.8 °F 93% 30.09 in 0.9 mi SSE 4.6 mph - N/A   Haze
2:20 AM 44.6 °F 42.2 °F 42.8 °F 93% 30.09 in 0.8 mi SSE 4.6 mph - N/A   Haze
2:50 AM 45 °F - 45 °F 98% 30.09 in 1 mi SSE 4.6 mph - - Rain Drizzle
2:50 AM 44.6 °F 41.4 °F 42.8 °F 93% 30.09 in 0.7 mi SSE 5.8 mph - N/A   Haze
3:20 AM 44.6 °F 42.2 °F 44.6 °F 100% 30.06 in 0.7 mi South 4.6 mph - N/A   Haze
3:50 AM 44.6 °F 42.2 °F 44.6 °F 100% 30.06 in 1.1 mi South 4.6 mph - N/A   Haze
4:20 AM 46.4 °F 44.3 °F 44.6 °F 93% 30.06 in 1.4 mi South 4.6 mph - N/A   Haze
4:50 AM 46.4 °F 44.3 °F 44.6 °F 93% 30.06 in 1.5 mi South 4.6 mph - N/A   Haze
5:20 AM 46.4 °F 42.9 °F 44.6 °F 93% 30.04 in 1.6 mi South 6.9 mph - N/A   Haze
5:50 AM 47 °F - 46 °F 92% 30.05 in 2 mi South 8.1 mph - -   Light Haze
5:50 AM 46.4 °F 42.9 °F 44.6 °F 93% 30.04 in 1.4 mi South 6.9 mph - N/A   Haze
6:20 AM 48.2 °F - 44.6 °F 87% 30.04 in 1.7 mi South 8.1 mph - N/A   Haze
6:50 AM 48.2 °F - 44.6 °F 87% 30.04 in 1.4 mi South 9.2 mph - N/A   Haze
7:20 AM 48.2 °F - 44.6 °F 87% 30.04 in 1.3 mi South 9.2 mph - N/A   Haze
7:50 AM 48.2 °F - 44.6 °F 87% 30.04 in 1.7 mi South 9.2 mph - N/A   Haze
8:20 AM 48.2 °F - 44.6 °F 87% 30.04 in 2.2 mi South 11.5 mph - N/A   Haze
8:50 AM 50 °F - 46 °F 81% 30.05 in 3 mi South 11.5 mph - - Rain Drizzle
8:50 AM 50.0 °F - 44.6 °F 82% 30.04 in 2.8 mi South 11.5 mph 23.0 mph N/A   Haze
9:20 AM 50.0 °F - 44.6 °F 82% 30.04 in 3.7 mi South 12.7 mph - N/A   Mostly Cloudy
9:50 AM 50.0 °F - 44.6 °F 82% 30.04 in 2.8 mi South 13.8 mph - N/A   Haze
10:20 AM 50.0 °F - 46.4 °F 87% 30.06 in - South 11.5 mph - N/A Rain Light Rain
10:50 AM 50.0 °F - 46.4 °F 87% 30.06 in 3.7 mi SSW 11.5 mph - N/A   Mostly Cloudy
11:20 AM 51.8 °F - 46.4 °F 82% 30.06 in 4.3 mi SSW 11.5 mph - N/A   Mostly Cloudy
11:50 AM 52 °F - 48 °F 80% 30.06 in 7 mi SSW 12.7 mph - -   Scattered Clouds
11:50 AM 51.8 °F - 46.4 °F 82% 30.06 in 5.0 mi SSW 12.7 mph - N/A   Scattered Clouds
12:20 PM 53.6 °F - 46.4 °F 77% 30.06 in 6.2 mi SSW 12.7 mph - N/A   Scattered Clouds
12:50 PM 55.4 °F - 44.6 °F 67% 30.04 in 6.2 mi SW 12.7 mph - N/A   Scattered Clouds
1:20 PM 57.2 °F - 42.8 °F 59% 30.04 in 6.2 mi SW 15.0 mph - N/A   Scattered Clouds
1:50 PM 57.2 °F - 30.2 °F 36% 30.04 in 6.2 mi WSW 20.7 mph - N/A   Scattered Clouds
2:20 PM 59.0 °F - 30.2 °F 34% 30.04 in 6.2 mi WSW 18.4 mph - N/A   Partly Cloudy
2:50 PM 57 °F - 34 °F 30% 30.06 in 22 mi WSW 16.1 mph - -   Scattered Clouds
2:50 PM 57.2 °F - 32.0 °F 38% 30.06 in - WSW 16.1 mph - N/A   Clear
3:20 PM 57.2 °F - 33.8 °F 41% 30.06 in - WSW 18.4 mph - N/A   Clear
3:50 PM 57.2 °F - 35.6 °F 44% 30.06 in 6.2 mi WSW 16.1 mph - N/A   Scattered Clouds
4:20 PM 51.8 °F - 35.6 °F 54% 30.09 in 6.2 mi WNW 12.7 mph - N/A   Scattered Clouds
4:50 PM 51.8 °F - 37.4 °F 58% 30.09 in 6.2 mi West 8.1 mph - N/A   Partly Cloudy
5:20 PM 53.6 °F - 39.2 °F 58% 30.09 in 6.2 mi West 10.4 mph - N/A   Partly Cloudy
5:50 PM 52 °F - 41 °F 56% 30.11 in 14 mi SSW 13.8 mph - - Rain Rain
5:50 PM 51.8 °F - 41.0 °F 67% 30.09 in 6.2 mi SW 10.4 mph - N/A   Partly Cloudy
6:20 PM 50.0 °F - 41.0 °F 71% 30.12 in - SW 10.4 mph - N/A   Clear
6:50 PM 50.0 °F - 41.0 °F 71% 30.12 in - SSW 9.2 mph - N/A   Clear
7:20 PM 48.2 °F - 41.0 °F 76% 30.12 in - SW 12.7 mph - N/A   Clear
7:50 PM 48.2 °F - 41.0 °F 76% 30.12 in - SW 10.4 mph - N/A   Clear
8:20 PM 46.4 °F 41.9 °F 41.0 °F 81% 30.12 in - SSW 9.2 mph - N/A   Clear
8:50 PM 47 °F - 42 °F 78% 30.15 in 12 mi SSW 9.2 mph - -  
8:50 PM 46.4 °F 42.4 °F 41.0 °F 81% 30.15 in - SSW 8.1 mph - N/A   Clear
9:20 PM 44.6 °F 39.7 °F 41.0 °F 87% 30.15 in - SW 9.2 mph - N/A   Clear
9:50 PM 44.6 °F 39.7 °F 41.0 °F 87% 30.15 in - SW 9.2 mph - N/A   Clear
10:20 PM 44.6 °F 39.7 °F 41.0 °F 87% 30.15 in - SW 9.2 mph 20.7 mph N/A   Clear
10:50 PM 44.6 °F 40.7 °F 41.0 °F 87% 30.15 in - SSW 6.9 mph - N/A   Clear
11:20 PM 44.6 °F 41.4 °F 41.0 °F 87% 30.15 in - SSW 5.8 mph - N/A   Clear
11:50 PM 44 °F - 42 °F 89% 30.16 in 9 mi SSW 8.1 mph - - Rain Drizzle
11:50 PM 44.6 °F 41.4 °F 41.0 °F 87% 30.15 in - SSW 5.8 mph - N/A   Clear